User: anonymous   Login
Location: Tr�vern
(48.0333°N, 4.6000°W)
Time: 23:29:39
(UTC+00:00)
Language:

ADEOS II - Orbit

View from above orbital plane
View from above orbital plane
View from above satellite
View from above satellite

Ground track
Ground track

The orbit data is extracted from the following two-line orbital elements,

1 27597U 02056A   20275.59022789 +.00000027 +00000-0 +28597-4 0  9995
2 27597 098.5290 220.5525 0001951 062.4340 297.7039 14.27461467926951
Epoch (UTC): 01 October 2020 14:09:55
Eccentricity: 0.0001951
inclination: 98.5290°
perigee height: 799 km
apogee height: 801 km
right ascension of ascending node: 220.5525°
argument of perigee: 62.4340°
revolutions per day: 14.27461467
mean anomaly at epoch: 297.7039°
orbit number at epoch: 92695

The dashed part of the orbit path shows where the satellite is in the earth's shadow,  

DLR